Погода в Нижнем Куркужине

Россия / Кабардино-Балкарская Республика     43°43′47″N   43°20′23″E
В апреле 2022 года жителям России запретили посещать сайт meteo.paraplan.net по решению Генеральной прокуратуры. Аудитория сайта уменьшилась в 10 раз. Владельцы сайта не видят смысла в поддержке погодного сервера в таких условиях. Сайт будет закрыт в октябре.
темп.,
°C
ветер,
м/с
пор.,
м/с
влажн.,
%
обл.,
%
осадки,
мм/ч
давл.,
гПа
погр.,
м
4 октября, вт
вт400:00+12юв2285100 0.0 1014123
03:00+12вюв2692100 0.0 1014396
06:00+12вюв2597100 0.0 1014254
09:00+14вюв338099 0.0 1014482
12:00+18в326398 0.0 1014787
15:00+18св216482 0.3 1015623
18:00+14ссв118188 0.1 101711
21:00+15зсз118082 0.1 101927
5 октября, ср
ср500:00+15вюв1180100 0.0 101817
03:00+12зсз119294 0.0 101910
06:00+11ю119226 0.0 101911
09:00+16ссв117223 0.0 1019508
12:00+16ссз668198 0.1 1021644
15:00+13сз5778100 0.1 1023696
18:00+13с1282100 0.3 1024209
21:00+12св1189100 0.3 1025161
6 октября, чт
чт600:00+12в1191100 0.0 1025142
03:00+11в1293100 0.1 1025219
06:00+11юв2295100 0.1 1025187
09:00+11в2397100 0.2 1025318
12:00+11в2392100 0.2 1024367
15:00+12в2391100 0.3 1024380
18:00+11вюв2396100 0.1 1026229
21:00+11вюв2398100 0.2 1025355
7 октября, пт
пт700:00+11вюв1298100 0.0 1025233
03:00+11в1198100 0.0 1025143
06:00+10в1297100 0.0 1025135
09:00+11в2497100 0.1 1025438
12:00+11в3595100 0.1 1024590
15:00+12вюв4693100 0.2 1023693
18:00+11вюв3694100 0.1 1023381
21:00+11вюв379359 0.1 1023441
8 октября, сб
сб800:00+10вюв389599 0.0 1022217
03:00+10вюв379182 0.0 1022311
06:00+9вюв2498100 0.0 1021233
09:00+10вюв3695100 0.0 1021339
12:00+12вюв6988100 0.0 1019682
15:00+13юв598089 0.1 1017842
18:00+13юв4881100 0.0 1017420
21:00+12вюв4787100 0.0 1018484